UNO1245 KPAM-KLSV

Flight info

Callsign UNO1245
Flight time N/A
Altitude 34000
Route DCT DEFUN J2 CEW J50 MCB/N0434F360 J50 ABI J65 CME J15 CNX/N0429F380 J15 ABQ J72 BAVPE J86 PGS DCT
Aircraft C17/H-SDE1E2FGHIJ5RTUWXY/LB1D1

Departure

Time 2026-05-06 17:10
Airport Tyndall Air Force Base (KPAM)

Arrival

Time N/A
Airport Nellis Air Force Base (KLSV)
Time Latitude Longitude Altitude Speed Heading
2026-05-06 16:45 30.06912 -85.58257 26 ft 0 kts 86°
2026-05-06 17:04 30.06912 -85.58255 24 ft 2 kts 86°
2026-05-06 17:04 30.06910 -85.58213 23 ft 8 kts 99°
2026-05-06 17:05 30.06872 -85.58158 25 ft 10 kts 136°
2026-05-06 17:05 30.06823 -85.58100 23 ft 6 kts 122°
2026-05-06 17:05 30.06830 -85.58086 23 ft 2 kts 22°
2026-05-06 17:05 30.06868 -85.58085 26 ft 9 kts 354°
2026-05-06 17:06 30.06930 -85.58133 26 ft 13 kts 314°
2026-05-06 17:06 30.07006 -85.58222 29 ft 18 kts 315°
2026-05-06 17:06 30.07110 -85.58342 30 ft 23 kts 314°
2026-05-06 17:06 30.07224 -85.58476 30 ft 24 kts 314°
2026-05-06 17:07 30.07339 -85.58613 28 ft 24 kts 314°
2026-05-06 17:07 30.07455 -85.58748 24 ft 24 kts 314°
2026-05-06 17:07 30.07577 -85.58864 22 ft 19 kts 349°
2026-05-06 17:07 30.07659 -85.58837 24 ft 0 kts 52°
2026-05-06 17:08 30.07665 -85.58815 23 ft 7 kts 78°
2026-05-06 17:08 30.07666 -85.58741 23 ft 10 kts 104°
2026-05-06 17:08 30.07644 -85.58706 24 ft 0 kts 134°
2026-05-06 17:09 30.07420 -85.58444 32 ft 98 kts 135°
2026-05-06 17:10 30.06757 -85.57659 257 ft 156 kts 135°
2026-05-06 17:10 30.06023 -85.56697 1386 ft 166 kts 134°
2026-05-06 17:10 30.05283 -85.55611 2524 ft 180 kts 130°
2026-05-06 17:10 30.04467 -85.54313 3106 ft 211 kts 129°
2026-05-06 17:11 30.03653 -85.52897 3601 ft 213 kts 126°
2026-05-06 17:11 30.02896 -85.51431 4092 ft 219 kts 122°
2026-05-06 17:11 30.02607 -85.49689 4501 ft 230 kts 84°
2026-05-06 17:11 30.03377 -85.48095 4935 ft 232 kts 40°
2026-05-06 17:12 30.04860 -85.47463 5498 ft 232 kts 358°
2026-05-06 17:12 30.06335 -85.48033 6075 ft 219 kts 320°
2026-05-06 17:12 30.07566 -85.49071 6713 ft 220 kts 317°
2026-05-06 17:12 30.08761 -85.50241 7253 ft 225 kts 313°
2026-05-06 17:13 30.09830 -85.51489 7794 ft 220 kts 307°
2026-05-06 17:13 30.10836 -85.52928 8079 ft 234 kts 302°
2026-05-06 17:13 30.11704 -85.54446 8079 ft 225 kts 296°
2026-05-06 17:13 30.12395 -85.55979 8467 ft 212 kts 290°
2026-05-06 17:14 30.12942 -85.57614 8963 ft 221 kts 284°
2026-05-06 17:14 30.13343 -85.59324 9469 ft 219 kts 278°
2026-05-06 17:14 30.13586 -85.61077 9974 ft 223 kts 273°
2026-05-06 17:14 30.13746 -85.62868 10423 ft 226 kts 281°
2026-05-06 17:15 30.14651 -85.64361 10829 ft 237 kts 321°
2026-05-06 17:15 30.16154 -85.65173 11308 ft 241 kts 333°
2026-05-06 17:15 30.17666 -85.66031 11806 ft 242 kts 324°
2026-05-06 17:15 30.19073 -85.67077 12295 ft 239 kts 321°
2026-05-06 17:16 30.20461 -85.68136 12779 ft 241 kts 322°
2026-05-06 17:16 30.21867 -85.69164 13275 ft 243 kts 322°
2026-05-06 17:16 30.23296 -85.70207 13778 ft 243 kts 322°
2026-05-06 17:16 30.24748 -85.71275 14121 ft 250 kts 322°
2026-05-06 17:17 30.26196 -85.72333 14518 ft 243 kts 322°
2026-05-06 17:17 30.27622 -85.73379 14952 ft 242 kts 322°
2026-05-06 17:17 30.29050 -85.74430 15427 ft 245 kts 322°
2026-05-06 17:17 30.30494 -85.75491 15917 ft 246 kts 322°
2026-05-06 17:18 30.31939 -85.76551 16381 ft 245 kts 321°
2026-05-06 17:18 30.33380 -85.77611 16909 ft 246 kts 321°
2026-05-06 17:18 30.34828 -85.78676 17409 ft 246 kts 321°
2026-05-06 17:18 30.36268 -85.79734 17931 ft 245 kts 321°
2026-05-06 17:19 30.37710 -85.80796 18440 ft 246 kts 321°
2026-05-06 17:19 30.39134 -85.81844 18873 ft 246 kts 320°
2026-05-06 17:19 30.40592 -85.82920 19253 ft 251 kts 320°
2026-05-06 17:19 30.42080 -85.84018 19600 ft 261 kts 320°
2026-05-06 17:20 30.43699 -85.85223 20010 ft 292 kts 321°
2026-05-06 17:20 30.45511 -85.86564 20441 ft 324 kts 322°
2026-05-06 17:20 30.47449 -85.87979 20875 ft 332 kts 322°
2026-05-06 17:20 30.49414 -85.89417 21250 ft 334 kts 321°
2026-05-06 17:21 30.51387 -85.90877 21623 ft 338 kts 321°
2026-05-06 17:21 30.53380 -85.92353 22009 ft 341 kts 321°
2026-05-06 17:21 30.55382 -85.93831 22381 ft 341 kts 321°
2026-05-06 17:21 30.57387 -85.95311 22755 ft 342 kts 321°
2026-05-06 17:22 30.59401 -85.96802 23150 ft 345 kts 321°
2026-05-06 17:22 30.61433 -85.98307 23544 ft 347 kts 321°
2026-05-06 17:22 30.63472 -85.99817 23885 ft 348 kts 321°
2026-05-06 17:22 30.65515 -86.01327 24222 ft 348 kts 321°
2026-05-06 17:23 30.67534 -86.02824 24549 ft 349 kts 321°
2026-05-06 17:23 30.69585 -86.04346 24877 ft 350 kts 321°
2026-05-06 17:23 30.71649 -86.05879 25222 ft 352 kts 320°
2026-05-06 17:23 30.73717 -86.07413 25571 ft 352 kts 320°
2026-05-06 17:24 30.75780 -86.08943 25924 ft 352 kts 320°
2026-05-06 17:24 30.77795 -86.10555 26278 ft 348 kts 313°
2026-05-06 17:24 30.79453 -86.12566 26655 ft 343 kts 301°
2026-05-06 17:24 30.80654 -86.14932 27022 ft 338 kts 290°
2026-05-06 17:25 30.81371 -86.17522 27414 ft 336 kts 279°
2026-05-06 17:25 30.81597 -86.20181 27799 ft 335 kts 271°
2026-05-06 17:25 30.81654 -86.22940 28186 ft 336 kts 272°